Regional Weather Roundup
Issued by NWS

Home | Current Version | Previous Version | Graphics & Text | Print | Product List | Glossary Off
Versions: 1 2 3 4 5 6 7 8 9 10 11 12 13 14 15 16 17 18 19 20 21 22 23 24 25 26 27 28 29 30 31 32 33 34 35 36 37 38 39 40 41 42 43 44 45 46 47 48 49 50

000
ASUS43 KMPX 231001
RWRMN
WEATHER ROUNDUP FOR MINNESOTA
NATIONAL WEATHER SERVICE TWIN CITIES/CHANHASSEN MN
500 AM CDT THU OCT 23 2014


NOTE: "FAIR" INDICATES FEW OR NO CLOUDS BELOW 12,000 FEET WITH NO
SIGNIFICANT WEATHER AND/OR OBSTRUCTIONS TO VISIBILITY. N/A MEANS
CURRENT SKY AND/OR WEATHER CONDITIONS ARE NOT AVAILABLE.

MNZ060>063-068>070-231100-
   Twin Cities Metro

CITY           SKY/WX    TMP DP  RH WIND       PRES   REMARKS
TWIN CITIES    CLOUDY    51  49  92 S3        30.00S
ST PAUL        CLOUDY    50  49  96 SE5       30.01F
CRYSTAL        CLOUDY    53  50  89 S6        29.98S
BLAINE         RAIN      52  52 100 S7        29.99R
LAKEVILLE      CLOUDY    50  46  87 S6        30.00S
EDEN PRAIRIE   CLOUDY    53  50  89 S8        29.98S
SOUTH ST PAUL  CLOUDY    52  48  88 S3        30.00S
LAKE ELMO      CLOUDY    50  48  93 S7        30.01S
$$
MNZ001>005-007-008-013>017-022>024-027-028-231100-
   Northwest Minnesota

CITY           SKY/WX    TMP DP  RH WIND       PRES   REMARKS
BEMIDJI        CLEAR     48  48  98 S6        29.88S FOG
HALLOCK        PTCLDY    46  45  93 S6        29.80S
ROSEAU         MOCLDY    48  45  87 S9        29.82R
WARROAD        MOCLDY    48  45  87 S7        29.83R
THIEF RVR FALL CLOUDY    46  45  93 S7        29.86R
CROOKSTON      CLOUDY    48  45  87 S9        29.86S
FOSSTON        CLEAR     45  45 100 S12       29.89R
DETROIT LAKES  CLEAR     48  46  93 S6        29.92R
MOORHEAD       CLEAR     45  45 100 S9        29.91R
PARK RAPIDS    CLOUDY    51  50  96 SW7       29.91S
MAHNOMEN       FAIR      46  45  98 S9        29.89R
$$
MNZ006-009>011-018-025>026-231100-
   North Central Minnesota

CITY           SKY/WX    TMP DP  RH WIND       PRES   REMARKS
BAUDETTE       MOCLDY    48  46  93 S5        29.85S
FLAG ISLAND    CLOUDY    50  48  93 S10       29.80S FOG
INTL FALLS     CLOUDY    49  47  93 VRB5      29.87F
WASKISH        PTCLDY    48  46  93 CALM      29.87R
BIG FORK       CLOUDY    50  48  93 S6        29.91S FOG
LONGVILLE      CLOUDY    52  50  93 S5        29.92S FOG
GRAND RAPIDS   CLOUDY    48  45  87 S9        29.93S
CRANE LAKE     CLOUDY    46  45  93 S5        29.93S
ORR            CLOUDY    46  43  87 SE6       29.90S
COOK           DRIZZLE   46  45  93 S5        29.93F
WALKER         CLOUDY    51  49  96 S5        29.90S
$$
MNZ012-019>021-037-231100-
   Northeast Minnesota

CITY           SKY/WX    TMP DP  RH WIND       PRES   REMARKS
DULUTH         LGT RAIN  50  41  71 S9        29.96S
ELY            CLOUDY    46  41  81 S5        29.95S
HIBBING        LGT RAIN  47  44  90 S3        29.94S
EVELETH        LGT RAIN  45  43  93 CALM      29.96S
DULUTH HARBOR  DRIZZLE   52  46  82 CALM      29.98S
TWO HARBORS    DRIZZLE   46  36  66 CALM      29.96S
SILVER BAY     DRIZZLE   46  41  81 CALM      29.96S
GRAND MARAIS     N/A     49  41  74 NE3       30.02S
G MARAIS ARPRT CLOUDY    43  36  75 SE6       30.01F
$$
MNZ029>031-032-039>041-046>048-054>057-064-231100-
   West Central Minnesota

CITY           SKY/WX    TMP DP  RH WIND       PRES   REMARKS
FERGUS FALLS   FOG       45  43  93 S6        29.94S VSB 1
WHEATON        CLEAR     45  43  93 SW7       29.95S
MORRIS         FOG       43  43 100 S6        29.93F VSB<1/4
ALEXANDRIA     FOG       50  49  96 SW8       29.95S VSB 1/2
ELBOW LAKE     FAIR      43  43 100 S6        29.93S FOG
WADENA         DRZL/FOG  48  46  93 S5        29.92S VSB 1/4
GLENWOOD       FOG       48  48 100 SW7       29.95F VSB 1/4
APPLETON       FOG       46  45  93 S5        29.95S VSB 3/4
BENSON         FOG       45  45 100 S5        29.96S VSB 1/4
ORTONVILLE     CLEAR     46  45  93 W7        29.94S
MADISON        CLEAR     48  46  93 SW6       29.95F
WILLMAR        FOG       48  46  93 CALM      29.98S VSB 1/4
$$
MNZ033>034-036-042>043-049>051-058-059-231100-
   Central Minnesota

CITY           SKY/WX    TMP DP  RH WIND       PRES   REMARKS
ST CLOUD       CLOUDY    54  52  93 S5        29.96S FOG
SAUK CENTRE    FOG       50  50 100 CALM      29.95S VSB<1/4
PAYNESVILLE    CLOUDY    50  50 100 S8        29.97S FOG
AITKIN         CLOUDY    52  46  82 S6        29.93S HAZE
PINE RIVER     CLOUDY    52  52 100 S3        29.96S FOG
BRAINERD       CLOUDY    49  49 100 S7        29.94F FOG
STAPLES        FOG       50  50 100 S5        29.93S VSB 1/4
LONG PRAIRIE   FOG       50  50 100 S5        29.95S VSB 1/4
LITTLE FALLS   FOG       52  50  93 SW5       29.95S VSB 1/2
LITCHFIELD     FOG       52  52 100 CALM      29.97S VSB 1/2
BUFFALO        CLOUDY    53  51  93 CALM      29.98S FOG
MAPLE LAKE     CLOUDY    54  54  98 S3        29.98S FOG
$$
MNZ037-044-045-052-053-231100-
   East Central Minnesota

CITY           SKY/WX    TMP DP  RH WIND       PRES   REMARKS
PRINCETON      CLOUDY    52  52 100 S5        29.97S
MORA           CLOUDY    46  45  93 S3        29.99S
CAMBRIDGE      CLOUDY    52  45  76 S5        29.96S
RUSH CITY      CLOUDY    49  47  93 S6        29.99R
MOOSE LAKE     RAIN      46  45  93 S6        29.95S
HINCKLEY       RAIN      48  46  93 S5        29.98S
CLOQUET        LGT RAIN  48  43  81 S5        29.96S
MCGREGOR       CLOUDY    48  46  93 S3        29.95S
$$
MNZ071>073-080-081-089-090-097-098-231100-
   Southwest Minnesota

CITY           SKY/WX    TMP DP  RH WIND       PRES   REMARKS
MONTEVIDEO     CLEAR     46  46 100 SW5       29.97S
GRANITE FALLS  FOG       43  43  99 S5        29.98F VSB 1/2
CANBY          CLEAR     49  47  92 SW13      29.97S
MARSHALL       CLEAR     48  45  87 SW5       29.97S
REDWOOD FALLS  FOG       49  48  97 SW5       29.98S VSB 3/4
OLIVIA         FOG       48  46  93 SW5       29.97S VSB 1/2
PIPESTONE      FOG       50  50 100 CALM      30.00S VSB 1/4
WINDOM         CLOUDY    54  52  94 SW8       30.00S
WORTHINGTON    CLOUDY    52  50  93 W8        30.02S VSB 1/2
JACKSON        CLOUDY    54  50  87 W7        30.01R FOG
TRACY          CLEAR     50  49  95 SW8       29.99S
SLAYTON        CLOUDY    50  50 100 W9        30.01S FOG
$$
MNZ065>067-074>077-082>085-091>093-231100-
   South Central Minnesota

CITY           SKY/WX    TMP DP  RH WIND       PRES   REMARKS
MANKATO        CLOUDY    54  46  76 S6        30.00S
NEW ULM        MOCLDY    52  52 100 SW3       29.99S
ST JAMES       CLOUDY    55  54  94 SW3       30.01R FOG
FAIRMONT       CLOUDY    54  48  82 S7        30.00S
GLENCOE        CLOUDY    55  55  99 S5        29.97F FOG
FARIBAULT      CLOUDY    50  48  93 S8        30.02R FOG
OWATONNA       DRIZZLE   50  46  87 S12       30.02R
WASECA         DRIZZLE   50  46  87 S8        30.03S
ALBERT LEA     LGT RAIN  50  48  93 S8        30.02S
$$
MNZ078>079-086>088-094>096-231100-
   Southeast Minnesota

CITY           SKY/WX    TMP DP  RH WIND       PRES   REMARKS
ROCHESTER      CLOUDY    50  43  77 S13       30.04F
STANTON        CLOUDY    52  47  84 S8        30.00R
DODGE CENTER   RAIN      50  46  87 S14       30.03S
WINONA         CLOUDY    48  45  87 SE6       30.06F
AUSTIN         RAIN      48  45  87 S8        30.04S
PRESTON        LGT RAIN  46  43  90 S12       30.06F
$$
ABBREVIATIONS USED IN REMARKS
   TC - TEMPERATURES IN CELSIUS
  WCI - WIND CHILL INDEX
   HX - HEAT INDEX
  VSB - VISIBILITY
$$



USA.gov is the U.S. government's official web portal to all federal, state and local government web resources and services.